Location: Unspecified
(0.0000°N, 0.0000°E)
Time: 15:06:11
(UTC+00:00)

Envisat - Pass Details

Date: 09 December 2018
Orbit: 764 x 766 km, 98.2° (Epoch: 13 December)

Event Time Altitude Azimuth Distance (km) Brightness Sun altitude
Rises 20:27:09 0° 205° (SSW) 3,230 6.9 -35.1°
Reaches altitude 10° 20:30:59 10° 235° (SW) 2,300 6.2 -36.0°
Maximum altitude 20:32:53 12° 257° (WSW) 2,155 6.0 -36.4°
Drops below altitude 10° 20:34:48 10° 280° (W) 2,297 6.0 -36.8°
Sets 20:38:39 0° 310° (NW) 3,218 6.5 -37.7°
